Regional Weather Roundup
Issued by NWS

Home | Current Version | Previous Version | Text Only | Print | Product List | Glossary On
Versions: 1 2 3 4 5 6 7 8 9 10 11 12 13 14 15 16 17 18 19 20 21 22 23 24 25 26 27 28 29 30 31 32 33 34 35 36 37 38 39 40 41 42 43 44 45 46 47 48 49 50
000
ASUS44 KFWD 070915
RWRTX
NORTH TEXAS HOURLY WEATHER ROUNDUP
NATIONAL WEATHER SERVICE FORT WORTH TX
300 AM CST SUN FEB 07 2016

NOTE: "FAIR" INDICATES FEW OR NO CLOUDS BELOW 12,000 FEET WITH NO
SIGNIFICANT WEATHER AND/OR OBSTRUCTIONS TO VISIBILITY.

TXZ118-119-071000-
DALLAS/FORT WORTH METROPLEX

CITY           SKY/WX    TMP DP  RH WIND       PRES   REMARKS
DFW AIRPORT    CLEAR     35  30  82 S8        30.25F WCI  29
DALLAS LOVE    PTCLDY    36  33  89 CALM      30.26F
FTW MEACHAM    CLEAR     38  32  79 S8        30.26F WCI  32
DAL-EXECUTIVE  CLEAR     39  33  79 S5        30.25F WCI  36
FTW-ALLIANCE   CLEAR     37  32  82 S3        30.24F
FTW-NAS-JRB    CLEAR     37  32  82 S6        30.27F WCI  32
FTW-SPINKS     CLEAR     35  33  90 S3        30.28F
ARLINGTON      CLEAR     37  32  82 S6        30.27F WCI  32
GRAND PRAIRIE  CLEAR     37  32  84 S5        30.29F WCI  33
ADDISON        CLEAR     41  36  83 S5        30.27F WCI  38
MESQUITE       CLEAR     33  32  97 S6        30.28F WCI  27
LANCASTER      CLEAR     35  31  85 SW3       30.29F
$$

TXZ091>094-102>105-117-120-121-131>134-071000-
NORTH CENTRAL TEXAS

CITY           SKY/WX    TMP DP  RH WIND       PRES   REMARKS
SHRMAN/DENISON CLEAR     40  34  79 S10       30.25F WCI  34
GAINESVILLE    CLEAR     35  31  87 SW7       30.25F WCI  29
BOWIE          CLEAR     33  31  93 S6        30.22S WCI  28
BRIDGEPORT     PTCLDY    39  34  83 S8        30.25F WCI  34
DECATUR        CLEAR     40  32  73 S13       30.22F WCI  32
DENTON         PTCLDY    33  30  88 S6        30.24F WCI  28
MCKINNEY       CLEAR     33  30  88 S7        30.25F WCI  27
GREENVILLE     CLEAR     32  32 100 S5        30.27F WCI  27
ROCKWALL       PTCLDY    37  35  91 SW8       30.26F WCI  31
TERRELL        CLEAR     32  29  88 S5        30.28F WCI  27
WAXAHACHIE     CLEAR     34  34  99 S7        30.28F WCI  28
CLEBURNE         N/A     36  36 100 S7        30.29F WCI  30
GRANBURY       CLEAR     36  32  86 S5        30.29F WCI  32
$$

TXZ083>090-098>101-113>116-127>130-139>142-154-155-071000-
WESTERN NORTH TEXAS

CITY           SKY/WX    TMP DP  RH WIND       PRES   REMARKS
WICHITA FALLS  PTCLDY    34  25  69 S10       30.20F WCI  26
WF-KICKAPOO    CLEAR     33  26  77 S3        30.21F
VERNON         CLEAR     34  21  60 SW9       30.18F WCI  26
ABILENE        CLEAR     40  18  41 S14       30.21F WCI  32
ABILENE-DYESS  CLEAR     38  19  46 S14       30.20F WCI  30
BRECKENRIDGE   CLEAR     38  26  59 S10       30.22F WCI  32
GRAHAM         CLEAR     34  30  86 CALM      30.21F
MINERAL WELLS  CLEAR     31  29  92 SE8       30.24F FOG     WCI  23
STEPHENVILLE   CLEAR     31  29  92 S5        30.28F WCI  27
COMANCHE       CLOUDY    35  32  88 S8        30.27F WCI  29
BROWNWOOD      CLOUDY    28  23  80 SE3       30.27F
COLEMAN        CLOUDY    32  18  54 S5        30.25F WCI  28
$$

TXZ143>147-156>162-174-175-071000-
CENTRAL TEXAS

CITY           SKY/WX    TMP DP  RH WIND       PRES   REMARKS
WACO           CLEAR     29  27  92 S6        30.30F FOG     WCI  23
WACO-MCGREGOR  CLEAR     30  29  96 SW10      30.31F WCI  21
HILLSBORO      CLEAR     33  31  92 SE5       30.29F WCI  28
CORSICANA      CLEAR     34  31  88 S6        30.30F FOG     WCI  29
MEXIA          CLEAR     35  33  94 S5        30.31F WCI  31
HEARNE         CLEAR     30  29  98 CALM      30.33F
CAMERON        CLEAR     33  32  96 CALM      30.32F FOG
TEMPLE         CLOUDY    31  29  92 CALM      30.32F FOG
KILLEEN        CLOUDY    33  31  94 S5        30.29F WCI  29
KILLEEN-SKYLRK CLOUDY    31  30  96 SW3       30.31F
FORT HOOD      CLOUDY    35  32  90 SW3       30.28F
GATESVILLE     CLEAR     32  30  93 CALM      30.32F
HAMILTON       CLEAR     32  32 100 S8        30.28F WCI  25
LAMPASAS       CLOUDY    35  33  92 W3        30.29S
$$

TXZ095>097-106>112-122>126-135>138-148>153-164>167-071000-
EAST TEXAS

CITY           SKY/WX    TMP DP  RH WIND       PRES   REMARKS
PARIS          PTCLDY    36  27  69 S5        30.27F WCI  32
SULPHUR SPRNGS CLEAR     38  35  86 CALM      30.30F
MOUNT PLEASANT CLEAR     33  33 100 SE3       30.30F
GILMER         CLEAR     32  30  94 CALM      30.31F
MINEOLA        CLEAR     32  30  93 CALM      30.30F FOG
TYLER          CLEAR     33  31  92 S6        30.30F WCI  28
LONGVIEW       CLEAR     33  31  92 CALM      30.30F
MARSHALL       CLEAR     30  28  93 CALM      30.33S
ATHENS         CLEAR     30  30 100 CALM      30.30F
PALESTINE      CLEAR     32  32 100 CALM      30.34S
JACKSONVILLE   CLEAR     38  35  88 SW5       30.33S WCI  35
HENDERSON      CLEAR     29  29 100 CALM      30.33S
CENTER         FAIR      32  31  96 CALM      30.30F FOG
NACOGDOCHES    MOCLDY    27  25  93 CALM      30.32S
LUFKIN         MOCLDY    30  29  96 CALM      30.32F FOG
$$

SUPPLEMENTAL OBSERVATIONS (CENTRAL)

CITY           SKY/WX    TMP DP  RH WIND       PRES   REMARKS
LAKE TEXOMA      N/A     43  34  70 S5          N/A
CADDO GRASSLND   N/A     37  34  87 S5          N/A  WCI  34
PAT MAYSE LAKE   N/A     43  36  75 S6          N/A  WCI  39
GREENVILLE       N/A     37  34  87 S5          N/A  WCI  34
CEDAR HILL       N/A     37  32  81 SW3         N/A
LAKE LIMESTONE   N/A     32  32 100 E3          N/A
MCGREGOR         N/A     32  32 100 SW2         N/A
$$

SUPPLEMENTAL OBSERVATIONS (WEST)

CITY           SKY/WX    TMP DP  RH WIND       PRES   REMARKS
MILLERS CREEK    N/A     34  25  69 SW8         N/A  WCI  27
POSSUM KINGDOM   N/A     37  27  65 S9          N/A  WCI  31
LBJ GRASSLAND    N/A     36  32  87 S7          N/A  WCI  30
COMANCHE         N/A     36  27  69 S9          N/A  WCI  29
HAMBY            N/A     37  19  48 S9          N/A  WCI  31
IVIE RESERVOIR   N/A     32  19  59 SE2         N/A
COLORADO BEND    N/A     37  32  81 SW6         N/A  WCI  33
$$

SUPPLEMENTAL OBSERVATIONS (EAST)

CITY           SKY/WX    TMP DP  RH WIND       PRES   REMARKS
CLARKSVILLE      N/A     36  32  87 W1          N/A
TEXARKANA        N/A     28  25  86 CALM        N/A
LINDEN           N/A     34  32  93 W1          N/A
CADDO LAKE       N/A     30  27  86 CALM        N/A
GILMER           N/A     32  30  93 CALM        N/A
HENDERSON        N/A     30  30 100 CALM        N/A
LUFKIN           N/A     32  32 100 MISG        N/A
N SABINE NF      N/A     32  30  93 MISG        N/A
S SABINE NF      N/A     32  30  93 CALM        N/A
$$

SUPPLEMENTAL OBSERVATIONS ARE A COLLECTION OF AUTOMATED INSTRUMENTS
THAT ARE MAINTAINED BY A VARIETY OF FEDERAL AND STATE AGENCIES.
CERTAIN ELEMENTS...SUCH AS HUMIDITY VALUES AND SUSTAINED WIND
SPEEDS...MAY BE APPROXIMATED.




USA.gov is the U.S. government's official web portal to all federal, state and local government web resources and services.